Location: Bytom
(50.3475°N, 18.9244°E)
Time: 06:36:16
(UTC+01:00)

ISS - Pass Details

Date: 24 January 2019
Orbit: 403 x 411 km, 51.6° (Epoch: 17 February)

Event Time Altitude Azimuth Distance (km) Brightness Sun altitude
Rises 19:19:16 0° 244° (WSW) 2,332 0.9 -27.8°
Reaches altitude 10° 19:21:21 10° 242° (WSW) 1,475 -0.3 -28.1°
Enters shadow 19:22:03 15° 241° (WSW) 1,196 -0.9 -28.2°
